User: anonymous
Location: Charleston
(38.3500°N, 81.6330°W)
Time: 04:12:00
(UTC-04:00)
Language:

Cosmos 2228 - Orbit

View from above orbital plane
View from above orbital plane
View from above satellite
View from above satellite

Ground track
Ground track

The orbit data is extracted from the following two-line orbital elements,

1 22286U 92094A   14273.44210126  .00002130  00000-0  23999-3 0  4447
2 22286 082.5225 227.4603 0022075 163.2806 196.9143 14.86022644175241
Epoch (UTC): 30 September 2014 10:36:37
Eccentricity: 0.0022075
inclination: 82.5225°
perigee height: 595 km
apogee height: 626 km
right ascension of ascending node: 227.4603°
argument of perigee: 163.2806°
revolutions per day: 14.86022644
mean anomaly at epoch: 196.9143°
orbit number at epoch: 17524

The dashed part of the orbit path shows where the satellite is in the earth's shadow,  

DLR